[[{"header":{"parameterUnit":"m.s-1","parameterCategory":1,"la1":30.2991,"la2":30.254,"lo1":-89.0895,"lo2":-89.0444,"dy":0.0017,"dx":0.0017,"nx":28,"ny":28,"refTime":"2024-02-22T09:00:00:Z","depth":0,"parameterNumber":2,"parameterNumberName":"U-component_of_WINDS"},"data":[0,0,0,0,0,0,0,0,0,0,0,0,0,0,0,0,0,0,0,0,0,0,0,0,0,0,0,0,0,0,0,0,0,0,0,0,0,0,0,0,0,0,0,0,0,0,0,0,0,0,0,0,0,0,0,0,0,0,-0.0923,-0.0923,0,-0.0939,-0.094,-0.094,-0.094,-0.094,-0.0939,-0.0939,-0.0955,-0.0956,-0.0956,0,0,0,0,0,0,0,0,0,0,0,0,0,-0.0889,-0.0889,-0.0923,-0.0923,-0.0923,-0.0939,-0.094,-0.094,-0.094,-0.094,-0.0939,-0.0939,-0.0955,-0.0956,-0.0956,0,0,0,0,0,0,0,0,0,0,0,0,0,-0.0904,-0.0889,-0.0923,-0.0925,-0.0925,-0.0939,-0.094,-0.094,-0.094,-0.094,-0.0939,-0.0939,-0.0955,-0.0956,-0.0956,-0.0969,0,0,-0.0959,-0.096,0,0,0,0,0,0,0,0,-0.0903,-0.0905,-0.0924,-0.0925,-0.0925,-0.0937,-0.0933,-0.0949,-0.094,-0.0934,-0.0939,-0.0939,-0.0949,-0.0951,-0.0954,-0.0969,-0.097,-0.0959,-0.096,-0.096,-0.0961,0,0,0,0,0,0,0,-0.0902,-0.0905,-0.0929,-0.0925,-0.0925,-0.0925,-0.0926,-0.0936,-0.0943,-0.0935,-0.0935,-0.0937,-0.0949,-0.0954,-0.0955,-0.097,-0.0959,-0.096,-0.0961,-0.0961,-0.0995,-0.0995,0,0,0,0,0,0,-0.0901,-0.0904,-0.0929,-0.093,-0.0913,-0.0926,-0.0928,-0.0934,-0.0943,-0.0944,-0.0937,-0.0937,-0.0952,-0.0954,-0.0955,-0.097,-0.096,-0.0961,-0.0962,-0.0995,-0.0995,-0.0995,0,0,0,0,0,0,-0.09,-0.0903,-0.0928,-0.0917,-0.092,-0.0926,-0.0933,-0.0934,-0.0938,-0.0945,-0.0946,-0.094,-0.0952,-0.0954,-0.0965,-0.097,-0.0962,-0.0962,-0.0994,-0.0995,-0.0995,-0.0998,0,0,0,0,0,0,-0.0899,-0.0903,-0.0908,-0.0917,-0.092,-0.0938,-0.0934,-0.0935,-0.094,-0.094,-0.0948,-0.0949,-0.0952,-0.0964,-0.0966,-0.0971,-0.0963,-0.0994,-0.0995,-0.0995,-0.0998,-0.0999,-0.1,0,0,0,0,0,-0.0898,-0.0908,-0.0908,-0.0911,-0.0927,-0.0938,-0.094,-0.0943,-0.094,-0.0945,-0.095,-0.0949,-0.0969,-0.0965,-0.0968,-0.0973,-0.0994,-0.0994,-0.0995,-0.0997,-0.0999,-0.1,0,0,0,0,0,0,-0.0899,-0.0909,-0.091,-0.0923,-0.093,-0.0938,-0.0945,-0.0945,-0.0952,-0.0952,-0.0955,-0.0957,-0.0968,-0.0972,-0.0967,-0.0985,-0.0981,-0.0982,-0.0982,-0.0983,-0.0984,-0.0983,-0.0964,0,0,0,0,0,-0.0901,-0.091,-0.0918,-0.0929,-0.0933,-0.0938,-0.0943,-0.0945,-0.0952,-0.0955,-0.096,-0.0966,-0.0974,-0.0979,-0.0986,-0.0999,-0.1,-0.1004,-0.1005,-0.1005,-0.1006,-0.1012,-0.1014,-0.0998,-0.0998,-0.0998,0,0,-0.0905,-0.0912,-0.0917,-0.093,-0.0935,-0.0943,-0.094,-0.095,-0.0956,-0.0956,-0.0967,-0.097,-0.0978,-0.0989,-0.0995,-0.0993,-0.1011,-0.1006,-0.1007,-0.1007,-0.1013,-0.1015,-0.1016,-0.0998,-0.0998,-0.0998,0,0,-0.0917,-0.0923,-0.0932,-0.0938,-0.0946,-0.095,-0.0952,-0.096,-0.0963,-0.0974,-0.0974,-0.0981,-0.0994,-0.0999,-0.1004,-0.1016,-0.1016,-0.1019,-0.1024,-0.1029,-0.103,-0.1031,-0.1035,-0.1037,-0.102,-0.102,-0.102,0,-0.092,-0.0933,-0.0937,-0.0946,-0.0951,-0.0952,-0.0961,-0.0966,-0.0977,-0.098,-0.0978,-0.0994,-0.0999,-0.1012,-0.1014,-0.1018,-0.102,-0.1017,-0.103,-0.1031,-0.1032,-0.1036,-0.1037,-0.102,-0.102,-0.102,-0.102,0,-0.0937,-0.0946,-0.0953,-0.0963,-0.0968,-0.0978,-0.0982,-0.0987,-0.0989,-0.0992,-0.1003,-0.1009,-0.1017,-0.102,-0.1021,-0.1032,-0.1031,-0.1029,-0.1025,-0.1034,-0.1037,-0.1039,-0.102,-0.102,-0.102,-0.102,0,0,-0.095,-0.0961,-0.0964,-0.0968,-0.0977,-0.0984,-0.0992,-0.1001,-0.1005,-0.1012,-0.1019,-0.103,-0.1029,-0.1033,-0.1035,-0.104,-0.1049,-0.1038,-0.1038,-0.1039,-0.106,-0.1061,-0.1062,-0.1049,-0.1049,-0.1049,-0.1059,0,-0.0961,-0.0977,-0.098,-0.0994,-0.1002,-0.1003,-0.101,-0.1016,-0.1019,-0.1026,-0.103,-0.1037,-0.1035,-0.1038,-0.1043,-0.1047,-0.1053,-0.1046,-0.1054,-0.1054,-0.1052,-0.1064,-0.1065,-0.1074,-0.1061,-0.1061,-0.1061,0,-0.0977,-0.0984,-0.0999,-0.1006,-0.1009,-0.1016,-0.1024,-0.1031,-0.1037,-0.1039,-0.1044,-0.1045,-0.1054,-0.105,-0.1061,-0.1056,-0.1059,-0.1062,-0.1062,-0.1062,-0.1058,-0.1064,-0.1077,-0.1078,-0.1063,-0.1063,-0.1063,0,-0.0983,-0.0997,-0.1007,-0.1011,-0.102,-0.1025,-0.1029,-0.1035,-0.104,-0.1046,-0.1049,-0.1056,-0.106,-0.1066,-0.1068,-0.1065,-0.1079,-0.1075,-0.108,-0.108,-0.1083,-0.1082,-0.1096,-0.1086,-0.1086,-0.1086,-0.1086,0,-0.0996,-0.1004,-0.101,-0.1016,-0.1026,-0.1029,-0.1038,-0.1042,-0.1047,-0.1054,-0.1055,-0.1061,-0.1064,-0.1071,-0.1073,-0.1081,-0.1083,-0.1084,-0.1085,-0.1084,-0.1084,-0.1086,-0.1085,-0.1086,-0.1086,-0.1086,-0.1086,0,-0.1004,-0.1009,-0.102,-0.1028,-0.103,-0.1036,-0.1043,-0.1048,-0.1052,-0.106,-0.1062,-0.1067,-0.1074,-0.1077,-0.1086,-0.1088,-0.1097,-0.1097,-0.1095,-0.1095,-0.1099,-0.1098,-0.1114,-0.1116,-0.1105,-0.1105,-0.1105,0,-0.1012,-0.1018,-0.1027,-0.1031,-0.1035,-0.1043,-0.1047,-0.1051,-0.1056,-0.1063,-0.1068,-0.1075,-0.1081,-0.1093,-0.1097,-0.1104,-0.1104,-0.1109,-0.1105,-0.1103,-0.1103,-0.1102,-0.1102,-0.1109,-0.1109,-0.1109,-0.1109,0,-0.1023,-0.1025,-0.1032,-0.104,-0.1046,-0.1052,-0.1058,-0.1062,-0.1066,-0.1071,-0.1079,-0.1084,-0.1093,-0.11,-0.1107,-0.111,-0.111,-0.1111,-0.1112,-0.1111,-0.1109,-0.1109,-0.1096,-0.111,-0.111,-0.111,-0.111,-0.111,-0.1031,-0.1037,-0.1043,-0.1051,-0.1056,-0.1062,-0.1067,-0.1071,-0.1078,-0.1086,-0.1087,-0.1095,-0.1101,-0.111,-0.1114,-0.1119,-0.1118,-0.112,-0.1121,-0.1121,-0.1121,-0.1109,-0.1121,-0.1121,-0.1121,-0.1121,-0.1121,0,-0.1042,-0.1047,-0.1054,-0.1062,-0.1068,-0.1068,-0.1075,-0.1079,-0.1087,-0.1092,-0.1098,-0.1106,-0.1113,-0.1118,-0.1124,-0.1128,-0.1128,-0.113,-0.1129,-0.113,-0.1122,-0.112,-0.1129,-0.1129,-0.1129,-0.1129,-0.1129,-0.1129,-0.1049,-0.1058,-0.1061,-0.1072,-0.1076,-0.1084,-0.1088,-0.1093,-0.1097,-0.1107,-0.1112,-0.1115,-0.112,-0.1127,-0.1133,-0.1134,-0.1136,-0.1138,-0.1139,-0.1131,-0.113,-0.1129,-0.1127,-0.1138,-0.1138,-0.1146,-0.1146,-0.1146]},{"header":{"parameterUnit":"m.s-1","parameterCategory":1,"la1":30.2991,"la2":30.254,"lo1":-89.0895,"lo2":-89.0444,"dy":0.0017,"dx":0.0017,"nx":28,"ny":28,"refTime":"2024-02-22T09:00:00:Z","depth":0,"parameterNumber":3,"parameterNumberName":"V-component_of_WINDS"},"data":[0,0,0,0,0,0,0,0,0,0,0,0,0,0,0,0,0,0,0,0,0,0,0,0,0,0,0,0,0,0,0,0,0,0,0,0,0,0,0,0,0,0,0,0,0,0,0,0,0,0,0,0,0,0,0,0,0,0,4.4245,4.4245,0,4.4306,4.4307,4.4308,4.4366,4.4367,4.4367,4.4368,4.4427,4.4428,4.4429,0,0,0,0,0,0,0,0,0,0,0,0,0,4.4175,4.4176,4.4244,4.4245,4.4246,4.4306,4.4307,4.4308,4.4366,4.4367,4.4368,4.4368,4.4427,4.4428,4.4429,0,0,0,0,0,0,0,0,0,0,0,0,0,4.4217,4.4176,4.4244,4.4282,4.4286,4.4306,4.4307,4.4308,4.4366,4.4367,4.4368,4.4369,4.4426,4.4428,4.4429,4.4415,0,0,4.4433,4.4433,0,0,0,0,0,0,0,0,4.4215,4.422,4.4276,4.428,4.4284,4.433,4.4304,4.4344,4.4365,4.4335,4.4368,4.4369,4.4393,4.4397,4.4406,4.4417,4.442,4.4433,4.4434,4.4434,4.4435,0,0,0,0,0,0,0,4.4212,4.4217,4.4269,4.4277,4.4282,4.4296,4.4303,4.4312,4.4357,4.4338,4.4342,4.4349,4.4396,4.4405,4.4408,4.4421,4.4433,4.4434,4.4435,4.4435,4.4426,4.4425,0,0,0,0,0,0,4.4204,4.4215,4.4267,4.4271,4.4252,4.4296,4.4304,4.4314,4.4357,4.4365,4.4348,4.4352,4.4402,4.4407,4.441,4.4399,4.4434,4.4435,4.4436,4.4427,4.4426,4.4425,0,0,0,0,0,0,4.4202,4.4208,4.4264,4.4244,4.4252,4.4296,4.4306,4.4314,4.4324,4.4365,4.4373,4.4349,4.4403,4.4409,4.4414,4.4402,4.4436,4.4437,4.4428,4.4427,4.4425,4.4375,0,0,0,0,0,0,4.42,4.4207,4.4202,4.4243,4.4253,4.4268,4.4306,4.4315,4.4327,4.4332,4.4368,4.4375,4.4405,4.4412,4.4415,4.4404,4.4438,4.443,4.4428,4.4426,4.4378,4.4371,4.4366,0,0,0,0,0,4.4197,4.4184,4.4201,4.4207,4.4249,4.4267,4.4272,4.4307,4.4325,4.4321,4.4348,4.4374,4.4402,4.4412,4.4416,4.4405,4.4431,4.4428,4.4426,4.438,4.4373,4.4366,0,0,0,0,0,0,4.4137,4.419,4.421,4.421,4.4234,4.4277,4.4272,4.4298,4.4316,4.4319,4.4361,4.4369,4.437,4.4388,4.4398,4.4395,4.442,4.4419,4.4384,4.4377,4.4372,4.4368,4.4439,0,0,0,0,0,4.4125,4.4136,4.4181,4.4176,4.4187,4.4228,4.4237,4.4262,4.4288,4.4297,4.4325,4.4347,4.4362,4.437,4.4385,4.438,4.439,4.4375,4.4369,4.4364,4.4363,4.4364,4.4359,4.4417,4.4417,4.4417,0,0,4.4097,4.4128,4.4132,4.4165,4.4187,4.4197,4.4235,4.4244,4.4253,4.4298,4.4307,4.4327,4.4355,4.4356,4.4358,4.4371,4.4349,4.4361,4.4357,4.4359,4.4361,4.4356,4.4351,4.4416,4.4416,4.4416,0,0,4.4054,4.4078,4.4078,4.41,4.4133,4.416,4.416,4.4199,4.4216,4.4225,4.426,4.427,4.4293,4.4313,4.4326,4.4293,4.4319,4.4296,4.4267,4.4268,4.4263,4.4259,4.425,4.4246,4.4295,4.4294,4.4294,0,4.4016,4.4035,4.4075,4.4083,4.4097,4.4141,4.4142,4.416,4.4195,4.4204,4.4219,4.4251,4.4273,4.4281,4.4273,4.4281,4.4283,4.4293,4.4261,4.4258,4.4254,4.4246,4.4242,4.4292,4.4292,4.4292,4.4293,0,4.3988,4.4001,4.3997,4.4033,4.4047,4.4051,4.4091,4.41,4.4124,4.415,4.4159,4.4187,4.4211,4.4214,4.4236,4.4225,4.4233,4.4253,4.428,4.4246,4.4238,4.4235,4.4288,4.4289,4.429,4.429,0,0,4.3908,4.3968,4.3966,4.3985,4.4025,4.4035,4.4042,4.4067,4.4074,4.4097,4.4105,4.4125,4.4145,4.416,4.4185,4.4186,4.4161,4.4207,4.4208,4.4199,4.4152,4.4138,4.4133,4.4178,4.4177,4.4177,4.4151,0,4.3873,4.389,4.3927,4.3932,4.3945,4.3988,4.3994,4.4019,4.4044,4.4058,4.4084,4.4099,4.4124,4.4134,4.4136,4.4163,4.4152,4.4165,4.4185,4.4186,4.4179,4.4129,4.4113,4.4087,4.4148,4.4147,4.4147,0,4.3835,4.3859,4.3866,4.3908,4.3915,4.392,4.3947,4.396,4.399,4.4008,4.4026,4.4055,4.4064,4.4088,4.4102,4.411,4.4121,4.4135,4.4135,4.414,4.4165,4.4133,4.4079,4.4076,4.4142,4.4143,4.4143,0,4.3779,4.3812,4.3822,4.3835,4.3884,4.3888,4.3908,4.3939,4.3953,4.3975,4.3985,4.4007,4.402,4.4037,4.4072,4.4085,4.4083,4.4108,4.4098,4.4098,4.4097,4.4097,4.4045,4.41,4.41,4.41,4.4101,0,4.3737,4.374,4.3798,4.3803,4.3809,4.3851,4.3854,4.3878,4.3906,4.3917,4.3954,4.3964,4.4008,4.4023,4.405,4.4059,4.4063,4.4078,4.4086,4.4076,4.4075,4.4084,4.4088,4.4099,4.41,4.41,4.41,0,4.3676,4.3714,4.3728,4.3774,4.3786,4.3788,4.3828,4.3835,4.3862,4.3876,4.3882,4.3924,4.3944,4.398,4.4008,4.4027,4.4031,4.4042,4.4021,4.4026,4.4015,4.4016,4.3969,4.3966,4.4021,4.402,4.402,0,4.3647,4.3651,4.3699,4.3711,4.3731,4.3748,4.3763,4.3804,4.3818,4.3854,4.3857,4.388,4.3901,4.3929,4.3962,4.3985,4.3998,4.398,4.4002,4.3993,4.4001,4.4001,4.4002,4.3976,4.3975,4.3974,4.3974,0,4.3593,4.3613,4.3634,4.3662,4.3679,4.3703,4.3728,4.3735,4.3782,4.3796,4.3818,4.3834,4.3865,4.3887,4.3915,4.3935,4.3963,4.3967,4.3966,4.3957,4.3946,4.3954,4.401,4.3968,4.3968,4.3969,4.3969,4.3969,4.3549,4.3556,4.3592,4.3614,4.3639,4.3662,4.3672,4.3702,4.3722,4.3752,4.3775,4.3795,4.3827,4.3868,4.3886,4.3903,4.3915,4.3913,4.3913,4.3913,4.391,4.3942,4.3907,4.3908,4.3908,4.3908,4.3908,0,4.3499,4.3525,4.3546,4.3582,4.36,4.3626,4.3656,4.3669,4.3687,4.3715,4.3736,4.3761,4.3784,4.382,4.3845,4.3851,4.3865,4.3857,4.3858,4.3862,4.3896,4.3895,4.3846,4.3846,4.3846,4.3846,4.3846,4.3846,4.3476,4.3489,4.3513,4.354,4.3565,4.3588,4.3603,4.3625,4.3648,4.3676,4.3696,4.372,4.3751,4.378,4.3802,4.3812,4.382,4.3809,4.3823,4.3854,4.3859,4.3865,4.3865,4.381,4.381,4.3788,4.3788,4.3787]}]]